This demonstration page uses our WeatherBlox Daily Observations layout. Learn more.

40.92945, -100.16068

Hourly Observations for February 3, 2019

Temp ( °F °C ) Dew Point ( °F °C ) Humidity (%) Winds ( mph kmh ) Pressure ( in mb ) Visibility ( mi km ) Precip ( " mm )
12:15 am 00:15 Clear 33 0.8 32 -0.2 93 93 SE 8 13 29.77 1008 10 16.0934 N/A
12:35 am 00:35 Clear 34 1 31 -0.7 89 89 ESE 8 13 29.76 1008 10 16.0934 N/A
12:55 am 00:55 Clear 34 1.1 30 -0.9 87 87 S 6 9 29.76 1008 10 16.0934 N/A
1:15 am 01:15 Clear 32 0 28 -2 87 87 SW 3 6 29.76 1008 10 16.0934 N/A
1:35 am 01:35 Clear 31 -0.5 28 -2.1 89 89 WNW 3 6 29.76 1008 10 16.0934 N/A
1:55 am 01:55 Clear 32 0.2 30 -1.2 90 90 WNW 3 6 29.75 1008 10 16.0934 N/A
2:15 am 02:15 Clear 31 -0.4 28 -2.1 88 88 Calm 29.76 1008 10 16.0934 N/A
2:35 am 02:35 Clear 31 -0.5 28 -2 90 90 Calm 29.74 1007 10 16.0934 N/A
2:55 am 02:55 Clear 31 -0.5 28 -2 90 90 Calm 29.75 1007 10 16.0934 N/A
3:15 am 03:15 Clear 30 -1.2 27 -2.9 88 88 Calm 29.75 1007 10 16.0934 N/A
3:35 am 03:35 Clear 30 -1.3 27 -2.9 89 89 Calm 29.74 1007 10 16.0934 N/A
3:55 am 03:55 Clear 30 -1.3 27 -2.7 90 90 Calm 29.74 1007 10 16.0934 N/A
4:15 am 04:15 Clear 29 -1.7 26 -3.1 90 90 Calm 29.73 1007 10 16.0934 N/A
4:35 am 04:35 Clear 29 -1.8 26 -3.2 90 90 Calm 29.72 1007 10 16.0934 N/A
4:55 am 04:55 Clear 28 -2.1 26 -3.4 91 91 Calm 29.73 1007 10 16.0934 N/A
5:15 am 05:15 Clear 29 -1.9 26 -3.2 91 91 Calm 29.71 1006 10 16.0934 N/A
5:35 am 05:35 Clear 28 -2.4 25 -3.8 90 90 Calm 29.71 1006 10 16.0934 N/A
5:55 am 05:55 Clear 28 -2.4 26 -3.6 92 92 E 5 7 29.71 1006 7 11.26538 N/A
6:15 am 06:15 Clear 28 -2.1 26 -3.1 93 93 SSE 3 6 29.71 1006 7 11.26538 N/A
6:35 am 06:35 Clear 28 -2.5 26 -3.6 92 92 N 6 9 29.71 1006 7 11.26538 N/A
6:55 am 06:55 Clear 28 -2.2 26 -3.2 93 93 Calm 29.72 1006 7 11.26538 N/A
7:15 am 07:15 Clear 28 -2.3 26 -3.3 93 93 Calm 29.71 1006 7 11.26538 N/A
7:35 am 07:35 Clear 26 -3.2 24 -4.2 93 93 Calm 29.73 1007 7 11.26538 N/A
7:55 am 07:55 Sunny 26 -3.4 24 -4.5 92 92 Calm 29.73 1007 7 11.26538 N/A
8:15 am 08:15 Sunny 26 -3.5 24 -4.6 92 92 NW 3 6 29.73 1007 7 11.26538 N/A
8:35 am 08:35 Sunny with Mist and Fog 28 -2.5 26 -3.5 93 93 Calm 29.71 1006 5 8.0467 N/A
8:55 am 08:55 Cloudy with Freezing Fog 29 -1.6 28 -2.5 94 94 Calm 29.7 1006 5 8.0467 N/A
9:15 am 09:15 Cloudy with Freezing Fog 31 -0.6 30 -1.3 95 95 Calm 29.69 1005 0.25 0.402335 N/A
9:35 am 09:35 Cloudy with Fog 32 0 31 -0.4 97 97 Calm 29.7 1006 5 8.0467 N/A
9:55 am 09:55 Cloudy with Fog 34 1 33 0.3 95 95 Calm 29.68 1005 5 8.0467 N/A
10:15 am 10:15 Cloudy with Fog 36 2.3 35 1.6 95 95 SE 6 9 29.65 1004 5 8.0467 N/A
10:35 am 10:35 Cloudy with Fog 37 3 36 2.3 95 95 ESE 6 9 29.64 1004 5 8.0467 N/A
10:55 am 10:55 Cloudy with Fog 38 3.5 37 2.7 95 95 SE 7 11 29.63 1003 0.25 0.402335 N/A
11:15 am 11:15 Cloudy with Fog 38 3.5 37 2.8 95 95 SE 5 7 29.62 1003 0.25 0.402335 N/A
11:35 am 11:35 Cloudy with Fog 39 4.1 38 3.5 96 96 SE 6 9 29.61 1003 0.25 0.402335 N/A
11:55 am 11:55 Cloudy with Fog 41 4.8 39 4.1 95 95 SE 7 11 29.59 1002 0.25 0.402335 N/A
12:15 pm 12:15 Cloudy with Mist and Fog 42 5.4 40 4.7 95 95 SSE 9 15 29.56 1001 4 6.43736 N/A
12:35 pm 12:35 Cloudy 42 5.8 41 5.1 95 95 SE 10 17 29.54 1000 7 11.26538 N/A
12:55 pm 12:55 Cloudy 43 6.2 42 5.5 95 95 SE 7 11 29.53 1000 7 11.26538 N/A
1:15 pm 13:15 Cloudy 44 6.6 43 6 96 96 SE 9 15 29.52 1000 10 16.0934 N/A
1:35 pm 13:35 Cloudy 45 7 43 6 93 93 SE 12 19 29.51 999 10 16.0934 N/A
1:55 pm 13:55 Cloudy 45 7 42 5.6 91 91 SSE 9 15 29.51 999 10 16.0934 N/A
2:15 pm 14:15 Cloudy 45 7 42 5.5 90 90 SE 10 17 29.51 999 10 16.0934 N/A
2:35 pm 14:35 Cloudy 45 7.1 42 5.7 91 91 SE 9 15 29.5 999 10 16.0934 N/A
2:55 pm 14:55 Cloudy 45 7 42 5.6 91 91 SSE 10 17 29.5 999 10 16.0934 N/A
3:15 pm 15:15 Cloudy 45 7 42 5.6 91 91 SE 13 20 29.48 998 10 16.0934 N/A
3:35 pm 15:35 Cloudy 45 7.3 43 6 92 92 SSE 9 15 29.49 999 10 16.0934 N/A
3:55 pm 15:55 Cloudy 46 7.6 43 5.9 89 89 S 8 13 29.5 999 10 16.0934 N/A
4:15 pm 16:15 Cloudy 46 7.8 42 5.8 87 87 SSE 6 9 29.49 999 10 16.0934 N/A
4:35 pm 16:35 Cloudy 47 8.5 43 6.2 86 86 Calm 29.48 998 10 16.0934 N/A
4:55 pm 16:55 Cloudy 47 8.6 43 6 84 84 Calm 29.48 998 10 16.0934 N/A
5:15 pm 17:15 Cloudy 46 7.9 41 5.1 83 83 NNE 5 7 29.49 999 10 16.0934 N/A
5:35 pm 17:35 Mostly Cloudy 43 6.3 39 4.1 86 86 NNE 6 9 29.52 999 10 16.0934 N/A
6:15 pm 18:15 Clear 39 3.9 37 2.5 91 91 ENE 7 11 29.53 1000 7 11.26538 N/A
6:35 pm 18:35 Clear 40 4.2 38 3.1 93 93 NE 7 11 29.52 1000 7 11.26538 N/A
6:55 pm 18:55 Clear 39 4.1 37 3 93 93 N 6 9 29.55 1001 7 11.26538 N/A
7:15 pm 19:15 Partly Cloudy 39 3.8 37 2.9 94 94 NNW 12 19 29.6 1002 7 11.26538 N/A
7:35 pm 19:35 Cloudy 42 5.5 40 4.5 93 93 NNW 14 22 29.6 1002 10 16.0934 N/A
7:55 pm 19:55 Cloudy 43 6.2 41 4.8 91 91 N 14 22 29.61 1003 10 16.0934 N/A
8:15 pm 20:15 Cloudy 33 0.4 29 -1.7 86 86 N 28 44 29.7 1006 7 11.26538 N/A
8:35 pm 20:35 Cloudy with Mist and Fog 31 -0.7 27 -2.6 87 87 NE 18 30 29.67 1005 5 8.0467 N/A
8:55 pm 20:55 Cloudy with Mist and Fog 30 -1 28 -2.5 90 90 N 14 22 29.71 1006 5 8.0467 N/A
9:15 pm 21:15 Cloudy with Mist and Fog 29 -1.5 27 -3 90 90 NNE 15 24 29.69 1005 5 8.0467 N/A
9:35 pm 21:35 Cloudy with Mist and Fog 29 -1.7 26 -3.2 90 90 N 16 26 29.71 1006 5 8.0467 N/A
9:55 pm 21:55 Cloudy 29 -1.8 26 -3.4 89 89 N 16 26 29.73 1007 7 11.26538 N/A
10:15 pm 22:15 Cloudy with Mist and Fog 28 -2 26 -3.5 90 90 N 9 15 29.75 1007 5 8.0467 N/A
10:35 pm 22:35 Cloudy with Mist and Fog 28 -2 26 -3.2 92 92 N 18 30 29.76 1008 3 4.82802 0 0
10:55 pm 22:55 Cloudy with Mist and Fog 28 -2.4 26 -3.5 92 92 N 18 30 29.78 1008 4 6.43736 0 0
11:15 pm 23:15 Cloudy with Mist and Fog 27 -2.6 25 -3.8 92 92 N 15 24 29.79 1009 5 8.0467 0 0
11:35 pm 23:35 Cloudy with Mist and Fog 26 -3.1 24 -4.2 92 92 N 20 31 29.81 1009 4 6.43736 N/A
11:55 pm 23:55 Cloudy with Mist and Fog 26 -3.5 24 -4.6 92 92 N 18 30 29.82 1010 5 8.0467 0 0

Powered by AerisWeather